Marathon, FL

7:25 PM EDT on August 20, 2017 (GMT -0400)
Florida Keys Marathon

Weather History for KMTH - September, 2014

Change the Weather History Date:

Sunday, September 14, 2014

  Actual Average Record
Temperature  
Mean Temperature 83 °F 84 °F  
Max Temperature 89 °F 90 °F 92 °F (2006)
Min Temperature 77 °F 79 °F 75 °F (2001)
Degree Days  
Heating Degree Days 0 0  
Month to date heating degree days 0 0  
Since 1 July heating degree days 0 0  
Cooling Degree Days 18 19  
Month to date cooling degree days 262 269  
Year to date cooling degree days 3946 3655  
Growing Degree Days 32 (Base 50)    
Moisture  
Dew Point 76 °F    
Average Humidity 81    
Maximum Humidity 94    
Minimum Humidity 68    
Precipitation  
Precipitation 0.08 in 0.27 in 0.70 in (2001)
Month to date precipitation 3.22 3.76  
Year to date precipitation 23.16 32.58  
Snow  
Snow 0.00 in - - ()
Month to date snowfall 0.0  
Since 1 July snowfall 0.0  
Since 1 September snowfall 0.0  
Snow Depth 0.00 in    
Sea Level Pressure  
Sea Level Pressure 30.09 in    
Wind  
Wind Speed 5 mph (East)    
Max Wind Speed 12 mph    
Max Gust Speed 16 mph    
Visibility 9 miles    
Events Rain , Thunderstorm    
T = Trace of Precipitation, MM = Missing Value Source: NWS Daily Summary

Daily Weather History Graph

Daily Weather History Graph

Search for Another Location

Airport or City:

Trip Planner

Search our weather history database for the weather conditions in past years. The results will help you decide how hot, cold, wet, or windy it might be!

Date:

Astronomy

Sep. 14, 2014 Rise Set
Actual Time 7:09 AM EDT 7:29 PM EDT
Civil Twilight 6:47 AM EDT 7:51 PM EDT
Nautical Twilight 6:20 AM EDT 8:18 PM EDT
Astronomical Twilight 5:53 AM EDT 8:45 PM EDT
Moon 11:56 PM EDT (9/14) 12:39 PM EDT (9/14)
Length of Visible Light 13h 04m
Length of Day
12h 19m
Waning Gibbous, 64% of the Moon is Illuminated
Sep 14
Waning Gibbous
Sep 15
Last Quarter
Sep 24
New
Oct 1
First Quarter
Oct 8
Full

Hourly Weather History & Observations

Time (EDT) Temp. Heat Index Dew Point Humidity Pressure Visibility Wind Dir Wind Speed Gust Speed Precip Events Conditions
12:53 AM 78.1 °F - 73.9 °F 87% 30.06 in 10.0 mi South 10.4 mph - 0.01 in Rain Light Rain
1:53 AM 79.0 °F - 75.0 °F 88% 30.05 in 10.0 mi South 5.8 mph - 0.00 in   Scattered Clouds
2:53 AM 78.1 °F - 73.9 °F 87% 30.04 in 10.0 mi South 3.5 mph - N/A   Clear
3:53 AM 77.0 °F - 75.0 °F 94% 30.04 in 10.0 mi Calm Calm - N/A   Clear
4:53 AM 78.1 °F - 75.9 °F 93% 30.04 in 10.0 mi ENE 3.5 mph - N/A   Clear
5:53 AM 78.1 °F - 75.0 °F 90% 30.05 in 10.0 mi Calm Calm - N/A   Clear
6:41 AM 78.1 °F - 73.9 °F 87% 30.06 in 10.0 mi Variable 3.5 mph - N/A   Scattered Clouds
6:53 AM 79.0 °F - 73.0 °F 82% 30.06 in 10.0 mi ESE 5.8 mph - N/A   Scattered Clouds
7:53 AM 80.1 °F 85.1 °F 75.0 °F 85% 30.06 in 10.0 mi ESE 5.8 mph - N/A   Clear
8:53 AM 82.0 °F 88.6 °F 75.0 °F 79% 30.09 in 10.0 mi ESE 4.6 mph - N/A   Clear
9:53 AM 82.9 °F 90.2 °F 75.0 °F 77% 30.12 in 10.0 mi ESE 4.6 mph - N/A   Scattered Clouds
10:53 AM 84.0 °F 91.9 °F 75.0 °F 74% 30.12 in 10.0 mi Variable 4.6 mph - N/A   Mostly Cloudy
11:53 AM 86.0 °F 95.1 °F 75.0 °F 70% 30.13 in 10.0 mi Variable 3.5 mph - N/A   Partly Cloudy
12:53 PM 87.1 °F 97.3 °F 75.9 °F 69% 30.12 in 10.0 mi Calm Calm - N/A   Overcast
1:13 PM 82.9 °F 90.8 °F 75.9 °F 79% 30.12 in 10.0 mi NW 5.8 mph - N/A   Overcast
1:39 PM 82.0 °F 89.4 °F 75.9 °F 82% 30.11 in 10.0 mi NNW 5.8 mph - N/A   Scattered Clouds
1:53 PM 80.1 °F 85.8 °F 77.0 °F 90% 30.11 in 4.0 mi NNW 6.9 mph - 0.03 in Rain , Thunderstorm Thunderstorms and Rain
2:02 PM 79.0 °F - 77.0 °F 94% 30.11 in 2.5 mi North 6.9 mph - 0.04 in Rain , Thunderstorm Thunderstorms and Rain
2:09 PM 79.0 °F - 77.0 °F 94% 30.11 in 8.0 mi North 4.6 mph - 0.04 in Rain , Thunderstorm Light Thunderstorms and Rain
2:31 PM 79.0 °F - 78.1 °F 97% 30.11 in 8.0 mi West 5.8 mph - 0.04 in Thunderstorm Mostly Cloudy
2:41 PM 79.0 °F - 77.0 °F 94% 30.10 in 9.0 mi NNW 5.8 mph - 0.05 in   Mostly Cloudy
2:53 PM 79.0 °F - 77.0 °F 94% 30.10 in 9.0 mi Calm Calm - 0.05 in   Mostly Cloudy
3:53 PM 82.9 °F 92.8 °F 78.1 °F 85% 30.08 in 9.0 mi Calm Calm - N/A   Clear
4:53 PM 84.0 °F 94.8 °F 78.1 °F 82% 30.07 in 10.0 mi East 6.9 mph - N/A   Clear
5:53 PM 84.0 °F 93.7 °F 77.0 °F 79% 30.07 in 10.0 mi East 8.1 mph - N/A   Clear
6:53 PM 84.0 °F 93.7 °F 77.0 °F 79% 30.07 in 10.0 mi East 8.1 mph - N/A   Partly Cloudy
7:53 PM 82.9 °F 92.8 °F 78.1 °F 85% 30.08 in 10.0 mi East 9.2 mph - N/A   Partly Cloudy
8:53 PM 82.9 °F 92.8 °F 78.1 °F 85% 30.10 in 10.0 mi East 9.2 mph - N/A   Partly Cloudy
9:53 PM 82.9 °F 92.8 °F 78.1 °F 85% 30.11 in 10.0 mi East 8.1 mph - N/A   Partly Cloudy
10:53 PM 82.9 °F 91.8 °F 77.0 °F 82% 30.12 in 10.0 mi East 9.2 mph - N/A   Clear
11:53 PM 82.9 °F 91.8 °F 77.0 °F 82% 30.12 in 10.0 mi East 8.1 mph - N/A   Clear